Year,Month,Day,Hour,Minute,Value (Times are PST for temperature in C)
2015,05,29,00,00,13.40
2015,05,29,00,01,13.40
2015,05,29,00,02,13.40
2015,05,29,00,03,13.40
2015,05,29,00,04,13.40
2015,05,29,00,05,13.40
2015,05,29,00,06,13.40
2015,05,29,00,07,13.40
2015,05,29,00,08,13.50
2015,05,29,00,09,13.50
2015,05,29,00,10,13.50
2015,05,29,00,11,13.50
2015,05,29,00,12,13.50
2015,05,29,00,13,13.40
2015,05,29,00,14,13.40
2015,05,29,00,15,13.40
2015,05,29,00,16,13.40
2015,05,29,00,17,13.40
2015,05,29,00,18,13.50
2015,05,29,00,19,13.50
2015,05,29,00,20,13.50
2015,05,29,00,21,13.50
2015,05,29,00,22,13.60
2015,05,29,00,23,13.60
2015,05,29,00,24,13.60
2015,05,29,00,25,13.60
2015,05,29,00,26,13.60
2015,05,29,00,27,13.60
2015,05,29,00,28,13.70
2015,05,29,00,29,13.70
2015,05,29,00,30,13.70
2015,05,29,00,31,13.70
2015,05,29,00,32,13.70
2015,05,29,00,33,13.70
2015,05,29,00,34,13.70
2015,05,29,00,35,13.60
2015,05,29,00,36,13.60
2015,05,29,00,37,13.60
2015,05,29,00,38,13.60
2015,05,29,00,39,13.60
2015,05,29,00,40,13.60
2015,05,29,00,41,13.60
2015,05,29,00,42,13.60
2015,05,29,00,43,13.60
2015,05,29,00,44,13.60
2015,05,29,00,45,13.60
2015,05,29,00,46,13.60
2015,05,29,00,47,13.60
2015,05,29,00,48,13.60
2015,05,29,00,49,13.60
2015,05,29,00,50,13.60
2015,05,29,00,51,13.60
2015,05,29,00,52,13.60
2015,05,29,00,53,13.60
2015,05,29,00,54,13.60
2015,05,29,00,55,13.60
2015,05,29,00,56,13.60
2015,05,29,00,57,13.60
2015,05,29,00,58,13.60
2015,05,29,00,59,13.60
2015,05,29,01,00,13.60
2015,05,29,01,01,13.60
2015,05,29,01,02,13.60
2015,05,29,01,03,13.60
2015,05,29,01,04,13.60
2015,05,29,01,05,13.60
2015,05,29,01,06,13.60
2015,05,29,01,07,13.60
2015,05,29,01,08,13.60
2015,05,29,01,09,13.60
2015,05,29,01,10,13.60
2015,05,29,01,11,13.60
2015,05,29,01,12,13.60
2015,05,29,01,13,13.60
2015,05,29,01,14,13.60
2015,05,29,01,15,13.60
2015,05,29,01,16,13.60
2015,05,29,01,17,13.60
2015,05,29,01,18,13.60
2015,05,29,01,19,13.60
2015,05,29,01,20,13.50
2015,05,29,01,21,13.50
2015,05,29,01,22,13.50
2015,05,29,01,23,13.50
2015,05,29,01,24,13.50
2015,05,29,01,25,13.50
2015,05,29,01,26,13.50
2015,05,29,01,27,13.40
2015,05,29,01,28,13.40
2015,05,29,01,29,13.40
2015,05,29,01,30,13.40
2015,05,29,01,31,13.40
2015,05,29,01,32,13.40
2015,05,29,01,33,13.40
2015,05,29,01,34,13.40
2015,05,29,01,35,13.40
2015,05,29,01,36,13.40
2015,05,29,01,37,13.40
2015,05,29,01,38,13.40
2015,05,29,01,39,13.40
2015,05,29,01,40,13.50
2015,05,29,01,41,13.40
2015,05,29,01,42,13.40
2015,05,29,01,43,13.40
2015,05,29,01,44,13.40
2015,05,29,01,45,13.40
2015,05,29,01,46,13.40
2015,05,29,01,47,13.40
2015,05,29,01,48,13.40
2015,05,29,01,49,13.40
2015,05,29,01,50,13.40
2015,05,29,01,51,13.40
2015,05,29,01,52,13.40
2015,05,29,01,53,13.40
2015,05,29,01,54,13.40
2015,05,29,01,55,13.40
2015,05,29,01,56,13.40
2015,05,29,01,57,13.50
2015,05,29,01,58,13.50
2015,05,29,01,59,13.50
2015,05,29,02,00,13.50
2015,05,29,02,01,13.50
2015,05,29,02,02,13.50
2015,05,29,02,03,13.50
2015,05,29,02,04,13.50
2015,05,29,02,05,13.40
2015,05,29,02,06,13.40
2015,05,29,02,07,13.40
2015,05,29,02,08,13.40
2015,05,29,02,09,13.40
2015,05,29,02,10,13.40
2015,05,29,02,11,13.40
2015,05,29,02,12,13.40
2015,05,29,02,13,13.30
2015,05,29,02,14,13.30
2015,05,29,02,15,13.30
2015,05,29,02,16,13.30
2015,05,29,02,17,13.30
2015,05,29,02,18,13.30
2015,05,29,02,19,13.30
2015,05,29,02,20,13.30
2015,05,29,02,21,13.30
2015,05,29,02,22,13.30
2015,05,29,02,23,13.30
2015,05,29,02,24,13.40
2015,05,29,02,25,13.40
2015,05,29,02,26,13.40
2015,05,29,02,27,13.40
2015,05,29,02,28,13.40
2015,05,29,02,29,13.40
2015,05,29,02,30,13.40
2015,05,29,02,31,13.50
2015,05,29,02,32,13.50
2015,05,29,02,33,13.50
2015,05,29,02,34,13.60
2015,05,29,02,35,13.60
2015,05,29,02,36,13.60
2015,05,29,02,37,13.60
2015,05,29,02,38,13.70
2015,05,29,02,39,13.70
2015,05,29,02,40,13.70
2015,05,29,02,41,13.70
2015,05,29,02,42,13.70
2015,05,29,02,43,13.70
2015,05,29,02,44,13.70
2015,05,29,02,45,13.70
2015,05,29,02,46,13.70
2015,05,29,02,47,13.70
2015,05,29,02,48,13.80
2015,05,29,02,49,13.80
2015,05,29,02,50,13.70
2015,05,29,02,51,13.70
2015,05,29,02,52,13.70
2015,05,29,02,53,13.70
2015,05,29,02,54,13.70
2015,05,29,02,55,13.70
2015,05,29,02,56,13.70
2015,05,29,02,57,13.70
2015,05,29,02,58,13.70
2015,05,29,02,59,13.70
2015,05,29,03,00,13.70
2015,05,29,03,01,13.70
2015,05,29,03,02,13.70
2015,05,29,03,03,13.70
2015,05,29,03,04,13.60
2015,05,29,03,05,13.60
2015,05,29,03,06,13.60
2015,05,29,03,07,13.60
2015,05,29,03,08,13.50
2015,05,29,03,09,13.50
2015,05,29,03,10,13.50
2015,05,29,03,11,13.40
2015,05,29,03,12,13.40
2015,05,29,03,13,13.40
2015,05,29,03,14,13.40
2015,05,29,03,15,13.30
2015,05,29,03,16,13.30
2015,05,29,03,17,13.30
2015,05,29,03,18,13.30
2015,05,29,03,19,13.20
2015,05,29,03,20,13.20
2015,05,29,03,21,13.20
2015,05,29,03,22,13.20
2015,05,29,03,23,13.10
2015,05,29,03,24,13.10
2015,05,29,03,25,13.10
2015,05,29,03,26,13.00
2015,05,29,03,27,13.00
2015,05,29,03,28,13.00
2015,05,29,03,29,13.00
2015,05,29,03,30,13.00
2015,05,29,03,31,12.90
2015,05,29,03,32,12.90
2015,05,29,03,33,12.90
2015,05,29,03,34,12.90
2015,05,29,03,35,12.90
2015,05,29,03,36,12.90
2015,05,29,03,37,12.90
2015,05,29,03,38,12.90
2015,05,29,03,39,12.90
2015,05,29,03,40,12.90
2015,05,29,03,41,12.90
2015,05,29,03,42,12.90
2015,05,29,03,43,12.90
2015,05,29,03,44,12.90
2015,05,29,03,45,12.90
2015,05,29,03,46,12.90
2015,05,29,03,47,12.90
2015,05,29,03,48,12.90
2015,05,29,03,49,12.90
2015,05,29,03,50,12.90
2015,05,29,03,51,12.90
2015,05,29,03,52,12.90
2015,05,29,03,53,12.90
2015,05,29,03,54,12.90
2015,05,29,03,55,12.90
2015,05,29,03,56,12.80
2015,05,29,03,57,12.80
2015,05,29,03,58,12.80
2015,05,29,03,59,12.70
2015,05,29,04,00,12.60
2015,05,29,04,01,12.50
2015,05,29,04,02,12.50
2015,05,29,04,03,12.40
2015,05,29,04,04,12.30
2015,05,29,04,05,12.30
2015,05,29,04,06,12.20
2015,05,29,04,07,12.20
2015,05,29,04,08,12.10
2015,05,29,04,09,12.10
2015,05,29,04,10,12.00
2015,05,29,04,11,12.00
2015,05,29,04,12,11.90
2015,05,29,04,13,11.90
2015,05,29,04,14,11.90
2015,05,29,04,15,11.80
2015,05,29,04,16,11.80
2015,05,29,04,17,11.80
2015,05,29,04,18,11.70
2015,05,29,04,19,11.70
2015,05,29,04,20,11.70
2015,05,29,04,21,11.70
2015,05,29,04,22,11.60
2015,05,29,04,23,11.60
2015,05,29,04,24,11.60
2015,05,29,04,25,11.60
2015,05,29,04,26,11.50
2015,05,29,04,27,11.50
2015,05,29,04,28,11.50
2015,05,29,04,29,11.40
2015,05,29,04,30,11.40
2015,05,29,04,31,11.40
2015,05,29,04,32,11.40
2015,05,29,04,33,11.40
2015,05,29,04,34,11.40
2015,05,29,04,35,11.40
2015,05,29,04,36,11.30
2015,05,29,04,37,11.30
2015,05,29,04,38,11.30
2015,05,29,04,39,11.30
2015,05,29,04,40,11.30
2015,05,29,04,41,11.30
2015,05,29,04,42,11.30
2015,05,29,04,43,11.20
2015,05,29,04,44,11.20
2015,05,29,04,45,11.20
2015,05,29,04,46,11.20
2015,05,29,04,47,11.20
2015,05,29,04,48,11.20
2015,05,29,04,49,11.20
2015,05,29,04,50,11.20
2015,05,29,04,51,11.20
2015,05,29,04,52,11.20
2015,05,29,04,53,11.20
2015,05,29,04,54,11.20
2015,05,29,04,55,11.20
2015,05,29,04,56,11.10
2015,05,29,04,57,11.10
2015,05,29,04,58,11.10
2015,05,29,04,59,11.10
2015,05,29,05,00,11.10
2015,05,29,05,01,11.10
2015,05,29,05,02,11.10
2015,05,29,05,03,11.10
2015,05,29,05,04,11.10
2015,05,29,05,05,11.10
2015,05,29,05,06,11.10
2015,05,29,05,07,11.10
2015,05,29,05,08,11.10
2015,05,29,05,09,11.10
2015,05,29,05,10,11.10
2015,05,29,05,11,11.10
2015,05,29,05,12,11.10
2015,05,29,05,13,11.10
2015,05,29,05,14,11.10
2015,05,29,05,15,11.00
2015,05,29,05,16,11.00
2015,05,29,05,17,11.00
2015,05,29,05,18,11.00
2015,05,29,05,19,11.00
2015,05,29,05,20,11.00
2015,05,29,05,21,11.00
2015,05,29,05,22,11.00
2015,05,29,05,23,11.00
2015,05,29,05,24,11.00
2015,05,29,05,25,11.00
2015,05,29,05,26,11.00
2015,05,29,05,27,11.00
2015,05,29,05,28,11.00
2015,05,29,05,29,11.00
2015,05,29,05,30,11.00
2015,05,29,05,31,11.00
2015,05,29,05,32,11.00
2015,05,29,05,33,11.00
2015,05,29,05,34,11.00
2015,05,29,05,35,11.00
2015,05,29,05,36,11.00
2015,05,29,05,37,11.10
2015,05,29,05,38,11.10
2015,05,29,05,39,11.10
2015,05,29,05,40,11.10
2015,05,29,05,41,11.10
2015,05,29,05,42,11.10
2015,05,29,05,43,11.10
2015,05,29,05,44,11.10
2015,05,29,05,45,11.10
2015,05,29,05,46,11.10
2015,05,29,05,47,11.10
2015,05,29,05,48,11.10
2015,05,29,05,49,11.10
2015,05,29,05,50,11.20
2015,05,29,05,51,11.20
2015,05,29,05,52,11.20
2015,05,29,05,53,11.20
2015,05,29,05,54,11.20
2015,05,29,05,55,11.20
2015,05,29,05,56,11.20
2015,05,29,05,57,11.20
2015,05,29,05,58,11.20
2015,05,29,05,59,11.20
2015,05,29,06,00,11.20
2015,05,29,06,01,11.20
2015,05,29,06,02,11.20
2015,05,29,06,03,11.20
2015,05,29,06,04,11.20
2015,05,29,06,05,11.20
2015,05,29,06,06,11.20
2015,05,29,06,07,11.20
2015,05,29,06,08,11.20
2015,05,29,06,09,11.30
2015,05,29,06,10,11.30
2015,05,29,06,11,11.30
2015,05,29,06,12,11.30
2015,05,29,06,13,11.30
2015,05,29,06,14,11.30
2015,05,29,06,15,11.30
2015,05,29,06,16,11.40
2015,05,29,06,17,11.40
2015,05,29,06,18,11.40
2015,05,29,06,19,11.40
2015,05,29,06,20,11.40
2015,05,29,06,21,11.50
2015,05,29,06,22,11.50
2015,05,29,06,23,11.50
2015,05,29,06,24,11.60
2015,05,29,06,25,11.60
2015,05,29,06,26,11.60
2015,05,29,06,27,11.60
2015,05,29,06,28,11.70
2015,05,29,06,29,11.70
2015,05,29,06,30,11.70
2015,05,29,06,31,11.70
2015,05,29,06,32,11.80
2015,05,29,06,33,11.80
2015,05,29,06,34,11.80
2015,05,29,06,35,11.80
2015,05,29,06,36,11.80
2015,05,29,06,37,11.90
2015,05,29,06,38,11.90
2015,05,29,06,39,11.90
2015,05,29,06,40,12.00
2015,05,29,06,41,12.00
2015,05,29,06,42,12.10
2015,05,29,06,43,12.10
2015,05,29,06,44,12.20
2015,05,29,06,45,12.20
2015,05,29,06,46,12.20
2015,05,29,06,47,12.30
2015,05,29,06,48,12.30
2015,05,29,06,49,12.30
2015,05,29,06,50,12.40
2015,05,29,06,51,12.40
2015,05,29,06,52,12.40
2015,05,29,06,53,12.40
2015,05,29,06,54,12.50
2015,05,29,06,55,12.50
2015,05,29,06,56,12.60
2015,05,29,06,57,12.60
2015,05,29,06,58,12.70
2015,05,29,06,59,12.70
2015,05,29,07,00,12.70
2015,05,29,07,01,12.80
2015,05,29,07,02,12.80
2015,05,29,07,03,12.80
2015,05,29,07,04,12.80
2015,05,29,07,05,12.80
2015,05,29,07,06,12.90
2015,05,29,07,07,12.90
2015,05,29,07,08,12.90
2015,05,29,07,09,13.00
2015,05,29,07,10,13.00
2015,05,29,07,11,13.10
2015,05,29,07,12,13.10
2015,05,29,07,13,13.10
2015,05,29,07,14,13.10
2015,05,29,07,15,13.20
2015,05,29,07,16,13.20
2015,05,29,07,17,13.20
2015,05,29,07,18,13.20
2015,05,29,07,19,13.20
2015,05,29,07,20,13.20
2015,05,29,07,21,13.20
2015,05,29,07,22,13.20
2015,05,29,07,23,13.20
2015,05,29,07,24,13.10
2015,05,29,07,25,13.10
2015,05,29,07,26,13.00
2015,05,29,07,27,13.00
2015,05,29,07,28,13.00
2015,05,29,07,29,12.90
2015,05,29,07,30,12.90
2015,05,29,07,31,12.90
2015,05,29,07,32,12.90
2015,05,29,07,33,12.80
2015,05,29,07,34,12.80
2015,05,29,07,35,12.80
2015,05,29,07,36,12.80
2015,05,29,07,37,12.80
2015,05,29,07,38,12.80
2015,05,29,07,39,12.80
2015,05,29,07,40,12.90
2015,05,29,07,41,12.90
2015,05,29,07,42,13.00
2015,05,29,07,43,13.00
2015,05,29,07,44,13.10
2015,05,29,07,45,13.10
2015,05,29,07,46,13.20
2015,05,29,07,47,13.20
2015,05,29,07,48,13.20
2015,05,29,07,49,13.30
2015,05,29,07,50,13.30
2015,05,29,07,51,13.30
2015,05,29,07,52,13.30
2015,05,29,07,53,13.40
2015,05,29,07,54,13.30
2015,05,29,07,55,13.30
2015,05,29,07,56,13.30
2015,05,29,07,57,13.30
2015,05,29,07,58,13.20
2015,05,29,07,59,13.20
2015,05,29,08,00,13.20
2015,05,29,08,01,13.20
2015,05,29,08,02,13.20
2015,05,29,08,03,13.20
2015,05,29,08,04,13.20
2015,05,29,08,05,13.30
2015,05,29,08,06,13.30
2015,05,29,08,07,13.30
2015,05,29,08,08,13.40
2015,05,29,08,09,13.40
2015,05,29,08,10,13.40
2015,05,29,08,11,13.50
2015,05,29,08,12,13.50
2015,05,29,08,13,13.60
2015,05,29,08,14,13.60
2015,05,29,08,15,13.70
2015,05,29,08,16,13.70
2015,05,29,08,17,13.80
2015,05,29,08,18,13.80
2015,05,29,08,19,13.90
2015,05,29,08,20,13.90
2015,05,29,08,21,13.90
2015,05,29,08,22,14.00
2015,05,29,08,23,14.00
2015,05,29,08,24,14.10
2015,05,29,08,25,14.10
2015,05,29,08,26,14.20
2015,05,29,08,27,14.20
2015,05,29,08,28,14.20
2015,05,29,08,29,14.20
2015,05,29,08,30,14.20
2015,05,29,08,31,14.20
2015,05,29,08,32,14.20
2015,05,29,08,33,14.20
2015,05,29,08,34,14.10
2015,05,29,08,35,14.00
2015,05,29,08,36,14.00
2015,05,29,08,37,13.90
2015,05,29,08,38,13.90
2015,05,29,08,39,13.90
2015,05,29,08,40,13.80
2015,05,29,08,41,13.90
2015,05,29,08,42,13.90
2015,05,29,08,43,14.00
2015,05,29,08,44,14.00
2015,05,29,08,45,14.10
2015,05,29,08,46,14.20
2015,05,29,08,47,14.20
2015,05,29,08,48,14.30
2015,05,29,08,49,14.30
2015,05,29,08,50,14.30
2015,05,29,08,51,14.30
2015,05,29,08,52,14.30
2015,05,29,08,53,14.40
2015,05,29,08,54,14.40
2015,05,29,08,55,14.40
2015,05,29,08,56,14.50
2015,05,29,08,57,14.60
2015,05,29,08,58,14.60
2015,05,29,08,59,14.70
2015,05,29,09,00,14.70
2015,05,29,09,01,14.80
2015,05,29,09,02,14.80
2015,05,29,09,03,14.90
2015,05,29,09,04,14.90
2015,05,29,09,05,14.90
2015,05,29,09,06,15.00
2015,05,29,09,07,15.10
2015,05,29,09,08,15.10
2015,05,29,09,09,15.20
2015,05,29,09,10,15.20
2015,05,29,09,11,15.30
2015,05,29,09,12,15.30
2015,05,29,09,13,15.30
2015,05,29,09,14,15.40
2015,05,29,09,15,15.40
2015,05,29,09,16,15.50
2015,05,29,09,17,15.50
2015,05,29,09,18,15.50
2015,05,29,09,19,15.60
2015,05,29,09,20,15.60
2015,05,29,09,21,15.60
2015,05,29,09,22,15.70
2015,05,29,09,23,15.70
2015,05,29,09,24,15.70
2015,05,29,09,25,15.70
2015,05,29,09,26,15.70
2015,05,29,09,27,15.60
2015,05,29,09,28,15.60
2015,05,29,09,29,15.50
2015,05,29,09,30,15.50
2015,05,29,09,31,15.40
2015,05,29,09,32,15.30
2015,05,29,09,33,15.30
2015,05,29,09,34,15.30
2015,05,29,09,35,15.20
2015,05,29,09,36,15.20
2015,05,29,09,37,15.10
2015,05,29,09,38,15.00
2015,05,29,09,39,14.90
2015,05,29,09,40,14.90
2015,05,29,09,41,14.80
2015,05,29,09,42,14.70
2015,05,29,09,43,14.60
2015,05,29,09,44,14.60
2015,05,29,09,45,14.60
2015,05,29,09,46,14.60
2015,05,29,09,47,14.50
2015,05,29,09,48,14.50
2015,05,29,09,49,14.40
2015,05,29,09,50,14.40
2015,05,29,09,51,14.40
2015,05,29,09,52,14.40
2015,05,29,09,53,14.40
2015,05,29,09,54,14.40
2015,05,29,09,55,14.40
2015,05,29,09,56,14.40
2015,05,29,09,57,14.40
2015,05,29,09,58,14.40
2015,05,29,09,59,14.40
2015,05,29,10,00,14.40
2015,05,29,10,01,14.40
2015,05,29,10,02,14.50
2015,05,29,10,03,14.40
2015,05,29,10,04,14.50
2015,05,29,10,05,14.50
2015,05,29,10,06,14.50
2015,05,29,10,07,14.60
2015,05,29,10,08,14.60
2015,05,29,10,09,14.60
2015,05,29,10,10,14.60
2015,05,29,10,11,14.70
2015,05,29,10,12,14.70
2015,05,29,10,13,14.70
2015,05,29,10,14,14.70
2015,05,29,10,15,14.70
2015,05,29,10,16,14.80
2015,05,29,10,17,14.80
2015,05,29,10,18,14.80
2015,05,29,10,19,14.80
2015,05,29,10,20,14.80
2015,05,29,10,21,14.90
2015,05,29,10,22,14.90
2015,05,29,10,23,14.90
2015,05,29,10,24,14.90
2015,05,29,10,25,14.90
2015,05,29,10,26,14.90
2015,05,29,10,27,14.90
2015,05,29,10,28,14.90
2015,05,29,10,29,14.90
2015,05,29,10,30,14.90
2015,05,29,10,31,14.90
2015,05,29,10,32,14.80
2015,05,29,10,33,14.80
2015,05,29,10,34,14.70
2015,05,29,10,35,14.70
2015,05,29,10,36,14.70
2015,05,29,10,37,14.70
2015,05,29,10,38,14.80
2015,05,29,10,39,14.80
2015,05,29,10,40,14.80
2015,05,29,10,41,14.90
2015,05,29,10,42,14.90
2015,05,29,10,43,15.00
2015,05,29,10,44,15.10
2015,05,29,10,45,15.20
2015,05,29,10,46,15.30
2015,05,29,10,47,15.40
2015,05,29,10,48,15.40
2015,05,29,10,49,15.50
2015,05,29,10,50,15.60
2015,05,29,10,51,15.70
2015,05,29,10,52,15.90
2015,05,29,10,53,16.00
2015,05,29,10,54,16.10
2015,05,29,10,55,16.20
2015,05,29,10,56,16.20
2015,05,29,10,57,16.20
2015,05,29,10,58,16.20
2015,05,29,10,59,16.20
2015,05,29,11,00,16.10
2015,05,29,11,01,16.10
2015,05,29,11,02,16.10
2015,05,29,11,03,16.20
2015,05,29,11,04,16.20
2015,05,29,11,05,16.30
2015,05,29,11,06,16.40
2015,05,29,11,07,16.50
2015,05,29,11,08,16.50
2015,05,29,11,09,16.50
2015,05,29,11,10,16.60
2015,05,29,11,11,16.60
2015,05,29,11,12,16.70
2015,05,29,11,13,16.80
2015,05,29,11,14,16.90
2015,05,29,11,15,17.00
2015,05,29,11,16,17.10
2015,05,29,11,17,17.10
2015,05,29,11,18,17.00
2015,05,29,11,19,17.00
2015,05,29,11,20,16.90
2015,05,29,11,21,16.80
2015,05,29,11,22,16.80
2015,05,29,11,23,16.70
2015,05,29,11,24,16.60
2015,05,29,11,25,16.60
2015,05,29,11,26,16.50
2015,05,29,11,27,16.50
2015,05,29,11,28,16.50
2015,05,29,11,29,16.40
2015,05,29,11,30,16.50
2015,05,29,11,31,16.50
2015,05,29,11,32,16.60
2015,05,29,11,33,16.60
2015,05,29,11,34,16.60
2015,05,29,11,35,16.60
2015,05,29,11,36,16.60
2015,05,29,11,37,16.70
2015,05,29,11,38,16.70
2015,05,29,11,39,16.70
2015,05,29,11,40,16.60
2015,05,29,11,41,16.60
2015,05,29,11,42,16.50
2015,05,29,11,43,16.40
2015,05,29,11,44,16.30
2015,05,29,11,45,16.20
2015,05,29,11,46,16.00
2015,05,29,11,47,15.90
2015,05,29,11,48,15.70
2015,05,29,11,49,15.60
2015,05,29,11,50,15.50
2015,05,29,11,51,15.40
2015,05,29,11,52,15.40
2015,05,29,11,53,15.50
2015,05,29,11,54,15.50
2015,05,29,11,55,15.60
2015,05,29,11,56,15.60
2015,05,29,11,57,15.70
2015,05,29,11,58,15.70
2015,05,29,11,59,15.70
2015,05,29,12,00,15.60
2015,05,29,12,01,15.60
2015,05,29,12,02,15.60
2015,05,29,12,03,15.50
2015,05,29,12,04,15.50
2015,05,29,12,05,15.60
2015,05,29,12,06,15.60
2015,05,29,12,07,15.60
2015,05,29,12,08,15.60
2015,05,29,12,09,15.60
2015,05,29,12,10,15.50
2015,05,29,12,11,15.40
2015,05,29,12,12,15.20
2015,05,29,12,13,15.10
2015,05,29,12,14,15.10
2015,05,29,12,15,15.10
2015,05,29,12,16,15.10
2015,05,29,12,17,15.10
2015,05,29,12,18,15.20
2015,05,29,12,19,15.30
2015,05,29,12,20,15.40
2015,05,29,12,21,15.50
2015,05,29,12,22,15.70
2015,05,29,12,23,15.90
2015,05,29,12,24,16.20
2015,05,29,12,25,16.30
2015,05,29,12,26,16.50
2015,05,29,12,27,16.60
2015,05,29,12,28,16.60
2015,05,29,12,29,16.60
2015,05,29,12,30,16.60
2015,05,29,12,31,16.50
2015,05,29,12,32,16.40
2015,05,29,12,33,16.20
2015,05,29,12,34,16.10
2015,05,29,12,35,16.00
2015,05,29,12,36,15.90
2015,05,29,12,37,15.80
2015,05,29,12,38,15.70
2015,05,29,12,39,15.60
2015,05,29,12,40,15.40
2015,05,29,12,41,15.40
2015,05,29,12,42,15.40
2015,05,29,12,43,15.40
2015,05,29,12,44,15.50
2015,05,29,12,45,15.60
2015,05,29,12,46,15.70
2015,05,29,12,47,15.80
2015,05,29,12,48,15.90
2015,05,29,12,49,16.00
2015,05,29,12,50,16.10
2015,05,29,12,51,16.10
2015,05,29,12,52,16.10
2015,05,29,12,53,16.10
2015,05,29,12,54,16.10
2015,05,29,12,55,16.10
2015,05,29,12,56,16.10
2015,05,29,12,57,16.10
2015,05,29,12,58,16.10
2015,05,29,12,59,16.10
2015,05,29,13,00,16.10
2015,05,29,13,01,16.20
2015,05,29,13,02,16.30
2015,05,29,13,03,16.30
2015,05,29,13,04,16.40
2015,05,29,13,05,16.40
2015,05,29,13,06,16.50
2015,05,29,13,07,16.50
2015,05,29,13,08,16.50
2015,05,29,13,09,16.40
2015,05,29,13,10,16.30
2015,05,29,13,11,16.30
2015,05,29,13,12,16.20
2015,05,29,13,13,16.30
2015,05,29,13,14,16.30
2015,05,29,13,15,16.30
2015,05,29,13,16,16.30
2015,05,29,13,17,16.30
2015,05,29,13,18,16.40
2015,05,29,13,19,16.40
2015,05,29,13,20,16.40
2015,05,29,13,21,16.50
2015,05,29,13,22,16.50
2015,05,29,13,23,16.40
2015,05,29,13,24,16.40
2015,05,29,13,25,16.50
2015,05,29,13,26,16.60
2015,05,29,13,27,16.70
2015,05,29,13,28,16.90
2015,05,29,13,29,17.00
2015,05,29,13,30,17.00
2015,05,29,13,31,17.10
2015,05,29,13,32,17.20
2015,05,29,13,33,17.30
2015,05,29,13,34,17.40
2015,05,29,13,35,17.40
2015,05,29,13,36,17.50
2015,05,29,13,37,17.60
2015,05,29,13,38,17.60
2015,05,29,13,39,17.60
2015,05,29,13,40,17.60
2015,05,29,13,41,17.60
2015,05,29,13,42,17.60
2015,05,29,13,43,17.60
2015,05,29,13,44,17.50
2015,05,29,13,45,17.50
2015,05,29,13,46,17.40
2015,05,29,13,47,17.30
2015,05,29,13,48,17.20
2015,05,29,13,49,16.90
2015,05,29,13,50,16.70
2015,05,29,13,51,16.50
2015,05,29,13,52,16.50
2015,05,29,13,53,16.40
2015,05,29,13,54,16.40
2015,05,29,13,55,16.50
2015,05,29,13,56,16.60
2015,05,29,13,57,16.80
2015,05,29,13,58,16.90
2015,05,29,13,59,17.00
2015,05,29,14,00,17.20
2015,05,29,14,01,17.30
2015,05,29,14,02,17.40
2015,05,29,14,03,17.40
2015,05,29,14,04,17.40
2015,05,29,14,05,17.40
2015,05,29,14,06,17.40
2015,05,29,14,07,17.50
2015,05,29,14,08,17.60
2015,05,29,14,09,17.70
2015,05,29,14,10,17.70
2015,05,29,14,11,17.80
2015,05,29,14,12,17.90
2015,05,29,14,13,18.00
2015,05,29,14,14,18.10
2015,05,29,14,15,18.10
2015,05,29,14,16,18.20
2015,05,29,14,17,18.30
2015,05,29,14,18,18.40
2015,05,29,14,19,18.40
2015,05,29,14,20,18.50
2015,05,29,14,21,18.60
2015,05,29,14,22,18.70
2015,05,29,14,23,18.80
2015,05,29,14,24,18.80
2015,05,29,14,25,18.90
2015,05,29,14,26,18.90
2015,05,29,14,27,18.90
2015,05,29,14,28,19.00
2015,05,29,14,29,19.00
2015,05,29,14,30,18.90
2015,05,29,14,31,18.90
2015,05,29,14,32,18.90
2015,05,29,14,33,18.80
2015,05,29,14,34,18.80
2015,05,29,14,35,18.80
2015,05,29,14,36,18.80
2015,05,29,14,37,18.70
2015,05,29,14,38,18.70
2015,05,29,14,39,18.70
2015,05,29,14,40,18.80
2015,05,29,14,41,18.90
2015,05,29,14,42,19.00
2015,05,29,14,43,19.20
2015,05,29,14,44,19.30
2015,05,29,14,45,19.50
2015,05,29,14,46,19.60
2015,05,29,14,47,19.60
2015,05,29,14,48,19.70
2015,05,29,14,49,19.70
2015,05,29,14,50,19.70
2015,05,29,14,51,19.70
2015,05,29,14,52,19.60
2015,05,29,14,53,19.60
2015,05,29,14,54,19.60
2015,05,29,14,55,19.60
2015,05,29,14,56,19.60
2015,05,29,14,57,19.60
2015,05,29,14,58,19.60
2015,05,29,14,59,19.70
2015,05,29,15,00,19.80
2015,05,29,15,01,19.80
2015,05,29,15,02,19.90
2015,05,29,15,03,20.00
2015,05,29,15,04,20.10
2015,05,29,15,05,20.20
2015,05,29,15,06,20.30
2015,05,29,15,07,20.40
2015,05,29,15,08,20.50
2015,05,29,15,09,20.60
2015,05,29,15,10,20.70
2015,05,29,15,11,20.80
2015,05,29,15,12,20.90
2015,05,29,15,13,21.00
2015,05,29,15,14,21.20
2015,05,29,15,15,21.30
2015,05,29,15,16,21.40
2015,05,29,15,17,21.50
2015,05,29,15,18,21.70
2015,05,29,15,19,21.80
2015,05,29,15,20,21.90
2015,05,29,15,21,22.10
2015,05,29,15,22,22.30
2015,05,29,15,23,22.50
2015,05,29,15,24,22.70
2015,05,29,15,25,22.90
2015,05,29,15,26,23.10
2015,05,29,15,27,23.20
2015,05,29,15,28,23.30
2015,05,29,15,29,23.40
2015,05,29,15,30,23.50
2015,05,29,15,31,23.60
2015,05,29,15,32,23.80
2015,05,29,15,33,23.90
2015,05,29,15,34,24.00
2015,05,29,15,35,24.00
2015,05,29,15,36,24.10
2015,05,29,15,37,24.10
2015,05,29,15,38,24.10
2015,05,29,15,39,24.00
2015,05,29,15,40,23.90
2015,05,29,15,41,23.90
2015,05,29,15,42,23.90
2015,05,29,15,43,23.90
2015,05,29,15,44,23.90
2015,05,29,15,45,23.90
2015,05,29,15,46,23.80
2015,05,29,15,47,23.80
2015,05,29,15,48,23.90
2015,05,29,15,49,23.90
2015,05,29,15,50,23.90
2015,05,29,15,51,24.00
2015,05,29,15,52,23.90
2015,05,29,15,53,23.90
2015,05,29,15,54,23.90
2015,05,29,15,55,23.90
2015,05,29,15,56,23.90
2015,05,29,15,57,23.90
2015,05,29,15,58,23.90
2015,05,29,15,59,23.90
2015,05,29,16,00,24.00
2015,05,29,16,01,23.90
2015,05,29,16,02,23.90
2015,05,29,16,03,23.90
2015,05,29,16,04,23.80
2015,05,29,16,05,23.80
2015,05,29,16,06,23.80
2015,05,29,16,07,23.70
2015,05,29,16,08,23.70
2015,05,29,16,09,23.70
2015,05,29,16,10,23.70
2015,05,29,16,11,23.70
2015,05,29,16,12,23.60
2015,05,29,16,13,23.60
2015,05,29,16,14,23.60
2015,05,29,16,15,23.60
2015,05,29,16,16,23.60
2015,05,29,16,17,23.60
2015,05,29,16,18,23.60
2015,05,29,16,19,23.60
2015,05,29,16,20,23.60
2015,05,29,16,21,23.70
2015,05,29,16,22,23.70
2015,05,29,16,23,23.70
2015,05,29,16,24,23.70
2015,05,29,16,25,23.70
2015,05,29,16,26,23.60
2015,05,29,16,27,23.50
2015,05,29,16,28,23.40
2015,05,29,16,29,23.30
2015,05,29,16,30,23.30
2015,05,29,16,31,23.20
2015,05,29,16,32,23.10
2015,05,29,16,33,23.00
2015,05,29,16,34,22.90
2015,05,29,16,35,22.80
2015,05,29,16,36,22.80
2015,05,29,16,37,22.60
2015,05,29,16,38,22.40
2015,05,29,16,39,22.30
2015,05,29,16,40,22.20
2015,05,29,16,41,22.10
2015,05,29,16,42,22.10
2015,05,29,16,43,22.00
2015,05,29,16,44,21.90
2015,05,29,16,45,21.90
2015,05,29,16,46,21.90
2015,05,29,16,47,21.90
2015,05,29,16,48,21.90
2015,05,29,16,49,21.80
2015,05,29,16,50,21.70
2015,05,29,16,51,21.60
2015,05,29,16,52,21.50
2015,05,29,16,53,21.40
2015,05,29,16,54,21.30
2015,05,29,16,55,21.30
2015,05,29,16,56,21.30
2015,05,29,16,57,21.40
2015,05,29,16,58,21.40
2015,05,29,16,59,21.40
2015,05,29,17,00,21.30
2015,05,29,17,01,21.30
2015,05,29,17,02,21.20
2015,05,29,17,03,21.10
2015,05,29,17,04,21.00
2015,05,29,17,05,20.90
2015,05,29,17,06,21.00
2015,05,29,17,07,21.00
2015,05,29,17,08,21.10
2015,05,29,17,09,21.20
2015,05,29,17,10,21.20
2015,05,29,17,11,21.30
2015,05,29,17,12,21.30
2015,05,29,17,13,21.40
2015,05,29,17,14,21.50
2015,05,29,17,15,21.60
2015,05,29,17,16,21.60
2015,05,29,17,17,21.70
2015,05,29,17,18,21.70
2015,05,29,17,19,21.70